Date,TemperatureHighF,TemperatureAvgF,TemperatureLowF,DewpointHighF,DewpointAvgF,DewpointLowF,HumidityHigh,HumidityAvg,HumidityLow,PressureMaxIn,PressureMinIn,WindSpeedMaxMPH,WindSpeedAvgMPH,GustSpeedMaxMPH,PrecipitationSumIn
2013-6-1,84.5,71.7,59.6,66.6,61.6,57.8,96,73,48,30.06,29.91,6,1,12,0.00
2013-6-2,71.5,66.5,62.7,66.4,62.8,59.3,98,88,69,29.95,29.84,3,0,6,0.49
2013-6-3,75.8,67.1,61.6,66.5,61.5,57.5,100,84,55,29.98,29.84,5,0,9,0.20
2013-6-4,78.3,65.9,53.3,62.3,57.9,52.7,100,78,50,30.05,29.96,3,0,11,0.00
2013-6-5,81.1,67.7,55.1,66.9,60.5,54.5,99,80,54,30.07,29.90,1,0,4,0.00
2013-6-6,77.4,69.1,62.1,68.4,64.0,59.9,95,84,65,29.95,29.73,3,0,5,0.04
2013-6-7,72.3,66.9,61.3,66.6,63.5,57.4,99,89,65,29.82,29.65,5,0,12,0.10
2013-6-8,77.4,66.8,59.0,63.2,60.4,58.4,99,82,53,30.06,29.81,6,1,9,0.03
2013-6-9,82.6,68.6,57.2,67.5,62.1,56.4,99,82,48,30.12,29.98,3,0,7,0.11
2013-6-10,76.0,66.8,64.0,68.2,64.4,61.1,100,93,63,29.99,29.83,11,1,15,0.40
2013-6-11,77.6,67.9,61.3,65.6,62.7,60.6,99,85,61,29.98,29.86,7,1,9,0.29
2013-6-12,87.0,73.2,59.3,74.5,67.4,59.0,99,84,60,30.00,29.85,7,2,14,0.00
2013-6-13,79.9,71.3,62.1,71.7,66.7,55.2,99,86,74,29.85,29.63,11,3,18,0.30
2013-6-14,74.0,64.5,55.6,58.8,55.3,52.4,94,74,52,30.05,29.81,5,0,10,0.00
2013-6-15,78.5,63.6,49.8,61.1,56.2,49.5,100,80,50,30.15,30.03,5,0,9,0.01
2013-6-16,80.1,67.6,55.1,67.3,61.8,54.5,99,83,59,30.09,29.98,9,2,10,0.00
2013-6-17,81.1,70.9,62.6,69.6,66.0,61.7,98,85,62,30.00,29.88,6,1,8,0.05
2013-6-18,71.8,66.3,59.6,67.0,64.0,58.1,100,93,73,29.93,29.80,4,0,8,1.11
2013-6-19,77.4,66.1,57.0,67.9,61.9,56.2,100,88,61,30.09,29.92,2,0,6,0.25
2013-6-20,81.1,68.5,56.2,66.1,61.8,55.9,100,82,50,30.18,30.09,1,0,5,0.00
2013-6-21,84.0,70.7,58.1,68.1,61.9,57.8,100,77,44,30.22,30.11,2,0,5,0.00
2013-6-22,82.6,68.9,55.9,63.0,59.1,55.3,100,75,40,30.21,30.08,1,0,5,0.00
2013-6-23,84.5,71.3,57.8,67.0,62.1,57.2,99,76,44,30.18,30.07,5,0,6,0.00
2013-6-24,82.8,71.9,62.3,70.9,65.8,61.2,98,82,60,30.17,30.04,4,0,7,0.00
2013-6-25,81.8,70.4,62.3,70.3,66.1,62.0,100,87,65,30.12,29.97,7,1,17,0.00
2013-6-26,81.6,70.5,62.9,72.3,66.8,62.0,99,89,66,30.00,29.86,8,2,10,0.01
2013-6-27,76.7,67.8,63.7,71.3,66.3,62.8,100,95,82,29.89,29.73,8,2,11,0.36
2013-6-28,80.5,71.1,63.1,71.6,67.6,61.3,99,89,68,29.76,29.59,14,3,18,0.67
2013-6-29,79.4,70.3,61.3,68.7,63.4,58.7,99,81,51,29.68,29.59,7,2,10,0.00
2013-6-30,84.3,69.9,58.0,66.2,61.3,55.9,99,78,40,29.78,29.67,2,0,7,0.13